Location: Lango�lan
(48.1202°N, 3.2340°W)
Time: 19:58:09
(UTC+00:00)

SKYMED 2 - Pass Details

Date: 23 October 2019
Orbit: 621 x 623 km, 97.9° (Epoch: 21 November)

Event Time Altitude Azimuth Distance (km) Brightness Sun altitude
Rises 04:54:08 0° 152° (SSE) 2,893 7.3 -18.9°
Reaches altitude 10° 04:56:20 10° 148° (SSE) 1,991 6.5 -18.5°
Maximum altitude 05:00:33 53° 72° (ENE) 767 4.4 -17.8°
Drops below altitude 10° 05:04:48 10° 355° (N) 2,006 6.1 -17.1°
Sets 05:07:02 0° 351° (N) 2,917 6.9 -16.8°
